Temperature
18 18 18 18 18 18 18 18 18 18 18 18 18 18 18 18 18 18 18 18 18 18 17 18 18 17 17 17 17 17 17 17 17 17 17 16 16 16 16 16 16 16 16
18 18 18 18 18 18 18 18 18 18 18 18 18 18 18 18 18 18 18 18 18 18 17 17 17 17 17 17 17 17 17 17 17 17 17 16 16 16 16 16 16 16 16
18 18 18 18 18 18 18 18 18 18 18 18 18 18 18 18 18 18 18 18 18 17 17 17 17 17 17 17 17 17 17 17 17 17 17 16 16 16 16 16 16 16 16
18 18 18 18 18 18 18 18 18 18 18 18 18 18 18 18 18 18 18 18 18 18 17 17 17 17 17 17 17 17 17 17 17 17 17 16 16 16 16 16 16 16 16
18 18 18 18 18 18 18 18 18 18 18 18 18 18 18 18 18 18 18 18 18 18 17 17 17 17 17 17 17 17 17 17 17 17 16 16 16 16 16 16 16 16 16
18 18 18 18 18 18 18 18 18 18 18 18 18 18 18 18 18 18 18 18 17 17 17 17 17 17 17 17 17 17 17 16 17 16 16 16 16 16 16 16 16 16 16
18 18 18 18 18 18 18 18 18 18 18 18 17 17 17 17 17 17 17 17 17 17 17 17 17 17 17 17 17 17 17 17 16 16 16 16 16 16 16 16 16 16 16
18 18 18 18 18 18 18 18 18 18 17 17 17 17 17 17 17 17 17 17 17 17 17 17 17 17 17 17 17 17 17 17 16 16 16 16 16 16 16 16 16 15 15
18 18 18 18 18 18 18 18 18 18 17 17 17 17 17 17 17 17 17 17 17 17 17 17 17 17 17 17 17 17 17 17 16 16 16 16 16 16 16 16 15 15 15
18 18 18 18 18 18 18 17 17 17 17 17 17 17 17 17 17 16 17 17 17 17 17 17 17 17 17 17 17 17 17 16 16 16 16 16 16 16 16 15 15 15 15
17 17 17 17 17 17 17 17 17 17 17 17 17 17 17 17 17 17 16 16 16 17 17 17 17 17 17 17 17 17 16 16 16 16 16 16 16 16 16 15 15 15 15
17 17 17 17 17 17 17 17 17 17 17 17 17 17 17 17 17 17 16 16 16 16 16 16 16 16 16 16 16 16 16 16 16 16 16 16 16 16 16 15 15 15 15
17 17 17 17 17 17 17 17 17 17 17 17 17 17 17 17 17 17 16 16 16 16 16 16 16 16 16 16 16 16 16 16 16 16 16 16 16 16 16 15 15 15 15
17 17 17 17 17 17 17 17 17 17 17 17 16 16 16 16 16 16 16 16 15 15 15 16 16 16 16 16 16 16 16 16 16 16 16 16 15 15 15 15 15 15 15
17 17 17 17 17 17 16 16 16 16 16 16 16 16 16 16 16 16 16 16 16 15 15 15 15 15 16 16 16 16 16 16 15 15 15 15 15 15 15 15 15 15 15
17 17 17 17 17 16 16 16 16 16 16 16 16 16 16 16 16 16 16 16 15 15 15 15 15 15 15 15 15 15 15 15 15 15 15 15 15 15 15 15 15 15 15
16 16 16 16 16 16 16 16 16 16 16 16 16 16 16 16 15 15 15 15 15 15 15 15 15 15 15 15 15 15 15 15 15 15 15 15 15 15 15 14 14 14 14
16 16 16 16 16 16 16 16 16 16 16 15 15 15 15 15 15 15 15 15 15 15 15 15 15 15 15 15 15 15 15 15 15 15 15 14 14 14 14 14 14 14 14
16 16 16 16 16 16 16 16 16 15 15 15 15 15 15 15 15 15 15 15 15 14 14 14 14 14 14 14 14 14 14 14 14 14 14 14 14 14 14 14 14 14 14
15 16 16 15 15 15 15 15 15 15 15 15 15 15 15 15 15 14 14 14 14 14 14 14 14 14 14 14 14 14 14 14 14 14 14 14 14 14 14 14 14 14 14
15 15 15 15 15 15 15 15 15 15 15 14 14 14 14 14 14 14 14 14 14 14 14 14 13 13 13 13 13 13 13 13 13 14 14 14 14 14 14 14 14 14 14
15 15 15 15 15 14 14 14 14 14 14 14 14 14 14 14 14 14 14 14 13 13 13 13 13 13 13 13 13 13 13 13 13 13 13 13 13 13 13 13 13 13 13
14 14 14 14 14 14 14 14 14 14 14 14 13 13 13 13 13 13 13 13 13 13 13 13 13 13 13 13 13 12 12 12 12 12 12 13 13 13 13 13 13 13 13
14 14 14 14 14 14 14 14 14 14 13 13 13 13 13 13 13 13 13 13 13 13 13 12 12 12 12 12 12 12 12 12 12 12 12 12 12 13 13 13 13 13 13
14 14 14 14 13 13 13 13 13 13 13 13 13 13 13 13 13 13 13 13 12 12 12 12 12 12 12 12 12 12 12 12 12 12 12 11 12 12 12 12 12 12 12
13 13 13 13 13 13 13 13 13 13 13 13 13 13 13 13 12 12 12 12 12 12 12 12 12 12 12 12 11 11 11 11 11 11 11 11 11 11 11 12 12 12 12
Wind_Speed
3 3 3 3 4 5 4 4 4 4 4 4 5 6 5 6 6 7 8 12 14 14 14 14 14 14 14 13 12 12 12 12 11 11 11 11 11 11 10 10 10 10 10
3 3 2 2 3 4 4 4 4 4 3 3 3 4 4 5 6 6 7 9 13 14 14 13 13 14 14 13 13 13 13 12 12 12 12 11 12 12 11 11 10 10 10
3 3 2 2 3 3 3 3 3 2 2 3 3 3 3 4 5 5 6 7 8 11 13 12 12 13 13 13 13 14 14 13 13 13 12 12 12 12 12 11 11 11 10
4 2 2 2 2 2 2 2 2 2 1 1 2 2 2 2 4 5 6 6 6 7 9 11 11 11 11 13 13 13 13 13 13 13 12 12 12 12 12 12 12 11 11
3 2 2 2 2 1 1 2 2 2 2 2 1 1 1 2 2 3 4 5 6 6 6 9 11 11 11 11 11 11 12 12 13 12 12 12 12 12 12 12 12 12 11
2 2 2 1 1 1 1 1 1 1 2 2 1 0 1 1 1 1 3 4 5 6 6 7 7 9 11 11 10 10 10 11 11 12 11 11 11 11 11 10 10 11 11
2 1 1 1 1 2 2 2 1 1 1 2 2 1 2 1 0 1 2 2 3 5 5 6 6 6 7 9 10 11 11 11 12 12 12 12 11 11 11 11 11 10 10
1 1 2 1 2 1 1 1 2 1 1 2 2 2 1 2 2 1 1 2 2 2 3 5 5 5 5 5 7 9 10 11 11 11 11 12 12 12 12 11 11 11 11
1 1 1 2 2 2 2 1 2 2 1 1 2 3 2 2 1 2 1 1 1 2 2 3 5 6 6 6 6 8 9 11 11 11 11 12 12 13 12 12 12 11 11
1 1 1 1 1 1 1 2 1 1 2 1 1 1 2 3 2 1 2 1 0 1 2 2 3 6 7 7 7 8 9 9 10 11 11 12 12 12 12 12 12 12 12
2 1 1 1 1 1 1 1 1 1 1 1 1 1 1 0 1 2 1 2 1 1 2 2 2 4 6 7 7 8 10 10 10 10 10 11 12 12 13 12 12 11 11
2 2 2 1 1 0 1 1 1 1 1 1 1 1 2 2 2 2 2 2 2 2 2 2 2 2 4 6 7 9 11 11 10 11 11 10 11 12 12 12 12 11 11
1 2 1 1 1 0 0 1 1 1 1 1 1 1 1 1 2 2 2 2 2 2 1 1 2 2 4 5 6 8 9 10 10 11 11 11 11 11 12 12 12 12 11
0 1 1 1 1 1 1 0 0 1 0 1 1 1 1 1 1 2 2 3 1 1 1 3 2 3 3 5 6 8 7 9 10 11 11 11 11 11 11 12 12 11 11
1 1 1 1 2 2 2 1 0 1 0 1 1 1 1 1 0 1 1 2 3 2 3 3 2 2 3 4 5 5 6 8 9 10 11 11 11 10 10 10 11 11 11
1 1 1 1 1 2 2 2 1 1 1 1 0 0 0 1 1 0 1 1 1 2 3 3 3 2 2 3 5 5 6 7 9 10 11 11 10 10 10 10 10 11 10
1 1 0 1 1 2 2 1 1 2 1 1 1 1 1 0 0 1 0 1 1 1 2 3 2 2 1 2 2 3 4 5 6 8 10 11 11 10 10 10 11 11 11
1 0 0 1 1 1 1 1 1 1 1 1 1 0 1 1 1 1 0 1 1 1 2 3 2 2 2 3 3 3 3 3 4 6 8 11 11 11 11 11 11 12 11
1 2 1 1 1 1 2 1 1 1 1 1 1 1 2 1 1 1 1 1 1 1 0 1 2 2 2 2 2 2 3 3 4 4 6 8 10 10 10 10 11 11 11
1 1 1 2 1 1 2 2 1 1 2 2 1 1 1 1 1 1 1 1 1 1 0 1 1 2 2 2 1 2 2 3 3 3 4 5 7 8 9 9 10 10 11
1 1 2 2 2 1 2 2 1 1 1 1 1 1 1 0 0 1 1 1 1 1 1 1 2 2 2 1 2 2 3 3 3 2 2 3 4 4 5 7 8 9 9
1 1 1 1 2 2 3 2 1 1 1 1 1 2 1 2 2 2 2 1 2 3 3 3 3 3 4 3 2 2 2 2 3 2 2 3 3 4 5 5 7 8 8
0 0 1 1 2 3 2 2 3 1 1 1 1 1 1 2 1 1 2 2 1 1 3 4 4 5 4 4 3 2 2 2 4 4 2 4 3 4 5 6 9 9 10
1 1 1 1 2 3 2 2 2 2 1 1 1 1 1 2 1 1 1 2 2 2 2 2 4 5 4 4 4 4 3 2 2 2 2 3 3 4 5 6 8 10 11
1 1 1 1 1 3 3 2 2 1 2 3 3 2 1 2 3 1 1 1 2 3 3 2 3 3 3 3 1 1 0 0 2 2 1 2 3 3 3 4 7 9 10
1 1 1 1 0 1 3 3 3 1 2 3 3 3 3 2 3 2 2 2 2 3 2 3 3 3 3 2 1 2 2 2 1 2 2 1 2 1 2 3 3 4 5
Wind_Direction
192 198 208 208 215 219 217 211 205 205 209 214 215 210 213 212 214 207 210 213 213 211 211 211 210 206 202 200 203 205 205 204 202 201 201 201 201 202 199 197 200 204 205
178 178 191 205 223 216 212 203 200 197 201 200 211 211 212 215 212 204 211 216 216 212 210 211 207 204 202 204 208 210 209 208 205 205 206 205 204 205 205 206 206 207 205
181 174 186 206 228 217 201 184 182 177 187 199 218 222 214 210 200 195 203 208 210 212 211 210 208 208 208 211 213 214 212 211 209 209 208 206 206 209 210 210 211 211 210
181 164 179 210 224 197 184 176 170 166 180 196 220 235 215 203 196 191 199 199 196 203 205 206 206 207 213 218 220 218 214 210 208 208 209 209 211 212 212 211 213 215 214
173 164 179 200 190 162 173 182 155 156 170 197 220 230 213 197 190 187 186 188 187 189 197 206 207 210 216 220 220 219 217 212 207 206 207 210 213 212 211 212 213 215 217
174 160 170 191 162 145 153 154 155 163 174 187 199 257 275 246 168 180 193 182 185 191 194 201 206 213 215 221 221 219 214 212 205 205 208 208 209 208 208 208 210 214 216
187 151 143 135 138 153 177 162 150 169 167 119 93 22 347 352 317 231 206 178 180 187 188 193 198 207 213 219 219 218 215 211 209 210 209 206 208 209 209 210 213 216 219
178 156 147 151 151 145 138 151 144 142 175 140 129 118 8 342 334 305 211 182 187 177 183 197 196 201 208 214 216 212 213 213 215 215 214 211 211 212 211 213 215 218 221
166 144 151 153 161 159 185 208 173 158 180 198 154 151 159 220 279 327 306 192 183 189 205 192 192 205 206 203 205 209 212 214 218 220 219 214 214 214 212 216 219 222 224
53 94 132 138 157 155 179 207 170 171 159 204 234 207 179 164 166 271 318 310 147 196 220 213 200 199 198 194 199 204 208 210 218 222 222 217 215 215 213 218 223 224 225
20 49 88 98 107 133 154 187 160 159 158 180 201 202 175 98 132 157 250 291 315 263 227 218 195 189 192 194 197 202 207 212 219 221 222 221 219 217 217 219 223 223 226
11 16 44 48 63 132 173 196 177 179 191 172 159 154 167 167 181 166 198 238 260 273 259 233 204 194 196 196 207 209 211 214 219 220 219 219 220 222 222 221 223 224 227
1 349 24 29 26 346 228 199 181 203 197 180 183 206 202 196 177 165 166 209 245 273 282 265 231 209 208 200 210 215 215 215 217 219 219 220 223 225 225 224 225 225 227
278 340 23 16 5 5 6 5 218 248 219 205 193 191 219 253 190 173 173 171 207 280 274 256 253 223 215 208 218 215 220 221 218 219 220 221 223 225 226 224 223 224 224
312 21 39 30 8 4 359 2 337 267 260 241 240 218 226 262 194 182 169 175 177 221 256 248 245 248 229 220 226 220 225 229 224 221 221 222 223 223 223 224 220 221 224
323 13 15 22 12 6 7 9 1 2 48 318 207 103 326 285 335 326 188 186 181 201 238 250 252 253 240 242 239 224 226 231 231 227 223 222 224 225 223 222 219 221 223
328 15 41 26 6 4 5 19 6 21 32 344 339 47 321 299 328 305 215 181 196 193 231 270 287 289 259 251 248 232 236 226 229 230 225 222 223 225 226 226 224 224 225
319 313 35 42 11 10 7 16 4 1 340 311 300 350 313 329 352 310 289 233 219 213 204 254 288 297 279 251 239 235 247 238 227 229 225 223 223 225 226 229 228 228 228
14 26 41 41 355 346 345 336 343 320 312 292 277 254 274 322 328 314 300 265 249 234 182 210 273 287 293 279 271 265 255 254 247 238 228 225 221 224 226 229 229 232 234
40 27 26 24 11 358 352 345 349 333 315 299 283 273 274 256 241 244 250 258 231 202 185 197 259 284 288 288 268 270 276 275 261 252 241 234 231 231 232 234 235 236 236
45 44 40 10 350 348 342 359 352 349 332 319 306 291 285 336 16 286 265 231 194 195 209 225 243 274 283 289 263 262 260 269 271 252 254 250 237 236 240 243 240 239 236
42 54 43 355 344 333 348 11 30 358 360 352 321 303 305 326 334 339 342 284 214 207 220 227 242 247 259 255 254 251 254 257 267 256 226 257 226 237 242 237 236 237 241
120 14 294 297 303 313 343 29 42 43 23 1 322 302 310 334 334 315 339 359 342 279 216 209 226 244 248 247 239 249 244 240 244 240 213 248 238 239 242 241 239 238 241
228 264 291 287 296 329 9 34 28 18 5 318 282 256 259 296 318 330 1 5 337 314 277 227 229 245 246 240 223 225 225 244 270 257 201 237 248 243 246 243 242 241 242
254 263 265 290 337 326 344 357 19 4 346 324 312 305 269 272 293 314 88 352 328 322 326 319 295 282 278 266 214 135 107 118 285 283 228 206 252 256 248 246 247 243 240
243 256 287 288 263 310 337 352 1 344 333 321 323 322 311 295 283 243 189 197 266 285 308 339 350 345 328 312 295 199 200 205 243 274 271 219 247 247 280 265 253 258 247
Height
1530 1531 1531 1530 1530 1530 1530 1530 1530 1530 1532 1533 1534 1536 1537 1538 1538 1539 1539 1540 1541 1541 1542 1543 1543 1544 1545 1546 1546 1547 1548 1548 1549 1550 1551 1551 1552 1553 1554 1554 1555 1556 1557
1530 1530 1530 1529 1529 1529 1528 1528 1528 1529 1530 1531 1533 1534 1535 1536 1537 1537 1538 1538 1539 1539 1540 1541 1542 1542 1543 1544 1545 1546 1546 1547 1547 1548 1549 1550 1551 1551 1552 1553 1554 1555 1555
1530 1529 1529 1528 1528 1527 1527 1527 1527 1528 1528 1529 1531 1532 1533 1534 1534 1535 1536 1536 1537 1537 1538 1539 1540 1541 1542 1542 1543 1544 1544 1545 1545 1546 1547 1548 1549 1550 1550 1551 1552 1553 1554
1529 1529 1528 1527 1527 1526 1526 1526 1526 1526 1527 1528 1529 1530 1531 1532 1533 1533 1534 1534 1535 1535 1536 1537 1538 1539 1540 1540 1541 1542 1542 1543 1543 1544 1545 1546 1547 1548 1548 1549 1550 1551 1552
1528 1528 1527 1526 1526 1525 1525 1525 1525 1526 1526 1527 1528 1529 1529 1530 1531 1531 1532 1533 1533 1534 1534 1535 1536 1537 1538 1538 1539 1539 1540 1540 1541 1542 1543 1544 1544 1545 1546 1547 1547 1548 1549
1528 1527 1527 1526 1525 1525 1524 1524 1525 1525 1526 1526 1527 1528 1528 1528 1529 1529 1530 1531 1532 1532 1533 1534 1534 1535 1536 1536 1537 1537 1537 1537 1538 1539 1540 1541 1542 1542 1543 1544 1545 1546 1547
1527 1526 1526 1525 1525 1524 1524 1524 1524 1524 1525 1525 1526 1526 1527 1527 1527 1528 1528 1529 1530 1531 1531 1532 1533 1533 1534 1534 1535 1535 1535 1536 1536 1537 1537 1538 1539 1539 1540 1541 1542 1543 1544
1527 1526 1525 1525 1524 1524 1523 1523 1523 1523 1524 1524 1525 1525 1525 1527 1526 1526 1527 1527 1528 1529 1530 1530 1531 1531 1532 1532 1532 1533 1533 1533 1534 1534 1535 1535 1536 1536 1537 1538 1539 1540 1541
1526 1525 1525 1524 1524 1523 1523 1522 1522 1522 1522 1523 1524 1524 1524 1524 1525 1525 1525 1525 1526 1527 1528 1529 1529 1529 1529 1530 1530 1530 1531 1531 1531 1532 1532 1532 1532 1533 1534 1535 1536 1537 1538
1525 1524 1524 1524 1523 1523 1522 1522 1522 1522 1522 1522 1522 1523 1523 1523 1523 1523 1523 1524 1524 1525 1526 1526 1526 1527 1527 1527 1528 1528 1529 1529 1529 1529 1529 1529 1529 1530 1531 1532 1533 1534 1535
1525 1524 1523 1523 1522 1522 1521 1521 1521 1521 1521 1521 1521 1521 1521 1521 1522 1521 1521 1521 1522 1523 1524 1524 1524 1525 1525 1525 1526 1526 1527 1527 1527 1527 1526 1526 1526 1527 1528 1529 1530 1530 1531
1524 1524 1523 1522 1522 1521 1520 1520 1519 1519 1519 1519 1519 1519 1519 1519 1520 1520 1519 1519 1520 1520 1521 1522 1522 1522 1523 1523 1524 1524 1524 1524 1524 1524 1524 1524 1524 1525 1525 1526 1527 1527 1528
1524 1523 1523 1522 1521 1520 1519 1519 1518 1518 1518 1517 1517 1518 1518 1518 1518 1518 1517 1517 1518 1518 1519 1519 1520 1520 1521 1521 1521 1522 1522 1522 1522 1522 1522 1522 1522 1522 1522 1523 1523 1524 1525
1523 1523 1522 1521 1520 1519 1518 1518 1517 1516 1516 1516 1516 1516 1516 1516 1516 1516 1516 1516 1516 1516 1516 1517 1517 1518 1518 1518 1519 1519 1519 1519 1519 1519 1518 1519 1519 1519 1520 1520 1521 1522 1522
1523 1522 1521 1521 1520 1519 1517 1516 1515 1515 1515 1515 1514 1514 1514 1514 1514 1514 1514 1514 1515 1514 1513 1514 1515 1515 1515 1516 1516 1516 1515 1515 1515 1515 1515 1516 1516 1516 1517 1517 1518 1519 1519
1522 1521 1520 1520 1519 1518 1517 1515 1514 1514 1513 1513 1513 1513 1512 1512 1512 1512 1512 1512 1512 1512 1511 1511 1511 1512 1512 1513 1513 1513 1512 1512 1512 1512 1512 1513 1513 1513 1514 1514 1515 1516 1516
1521 1521 1520 1519 1518 1517 1516 1515 1513 1513 1512 1511 1511 1511 1511 1510 1510 1510 1510 1510 1510 1510 1508 1508 1509 1509 1509 1509 1509 1509 1509 1508 1508 1509 1509 1509 1510 1510 1511 1511 1512 1512 1513
1520 1519 1519 1518 1517 1516 1515 1514 1512 1511 1511 1510 1510 1509 1509 1509 1508 1508 1507 1507 1507 1507 1506 1505 1505 1506 1506 1505 1505 1504 1505 1505 1505 1505 1505 1506 1507 1507 1507 1508 1508 1509 1509
1518 1517 1517 1516 1515 1514 1513 1512 1511 1510 1509 1508 1508 1507 1507 1507 1506 1506 1505 1505 1505 1504 1504 1503 1502 1502 1502 1502 1501 1501 1501 1501 1501 1501 1502 1502 1503 1504 1504 1505 1505 1506 1506
1516 1516 1515 1514 1513 1512 1512 1511 1509 1508 1507 1507 1506 1506 1505 1504 1504 1503 1503 1503 1502 1502 1501 1500 1499 1499 1499 1498 1498 1497 1496 1497 1497 1498 1498 1498 1499 1500 1501 1501 1502 1502 1502
1515 1514 1513 1512 1512 1511 1510 1509 1507 1506 1505 1505 1504 1503 1503 1502 1501 1501 1500 1500 1499 1499 1498 1497 1496 1496 1495 1495 1494 1494 1493 1493 1493 1494 1494 1494 1495 1496 1496 1497 1498 1498 1498
1513 1512 1511 1511 1510 1509 1508 1507 1506 1505 1503 1502 1502 1501 1500 1500 1499 1498 1498 1497 1497 1496 1495 1494 1493 1493 1492 1492 1491 1491 1490 1489 1489 1490 1490 1490 1491 1491 1492 1492 1493 1493 1494
1512 1511 1510 1509 1508 1508 1507 1505 1504 1503 1501 1500 1499 1498 1497 1497 1496 1495 1495 1494 1494 1493 1493 1492 1491 1490 1489 1489 1488 1487 1487 1486 1486 1486 1487 1486 1487 1486 1487 1488 1489 1489 1490
1510 1509 1509 1508 1507 1506 1505 1504 1503 1501 1500 1498 1497 1496 1495 1494 1493 1493 1492 1491 1491 1490 1489 1489 1488 1487 1487 1486 1485 1484 1483 1483 1483 1483 1483 1482 1482 1482 1483 1483 1484 1485 1485
1509 1507 1507 1506 1505 1504 1503 1502 1501 1499 1497 1496 1495 1494 1493 1492 1491 1490 1489 1488 1488 1487 1486 1486 1485 1484 1484 1483 1482 1481 1480 1480 1479 1479 1479 1478 1478 1478 1478 1479 1480 1480 1481
1508 1507 1506 1505 1503 1503 1502 1499 1499 1497 1495 1493 1492 1491 1490 1489 1488 1487 1486 1485 1484 1484 1483 1482 1482 1481 1480 1479 1479 1478 1478 1477 1476 1476 1476 1476 1475 1475 1475 1475 1475 1476 1476